Powrót do katalogu

SL-8 DEB

AktywnyLEO
NORAD 19261·DEBRIS·🇷🇺 Russia

Wystrzelony Jun 21, 1988 z Plesetsk Cosmodrome

Loading…

Następne Przeloty (najbliższe 24 godziny)

TLE

ŚwieżeSource: Space-Track

Epoka: Sep 14, 2026, 05:47 UTC

1 19261U 88053D   26257.24119406  .00001247  00000-0  26336-3 0  9999
2 19261  74.0516 183.1380 0009602 343.2684 167.2589 14.60422538 13877

Śledź SL-8 DEB w czasie rzeczywistym z AllMySat

Download on the App Store